Aérodrome :
LOGIN :

S'inscrire | Disclaimer

   EN    FR    IT 

 










Légende :    VFR   VFR Marginal   IFR   IFR Intensif   IFR Très Intensif
Visi : 
Plafond : 
>= 8 km
>= 3000ft
5 à 8 km
1000 à 3000 ft
1500m à 5 km
500 à 1000 ft
800 à 1500m
200 à 500 ft
< 800m
< 200 ft
Symboles :   Orages  Brouillard  Fortes neiges  Fortes précipitations  Vent > 20 kt
SIGMETs :   Divers  Orages  Givrage  Turbulence  Onde Orograph.  Cendres Volcan.







- Altitude de l'aérodrome : 12 ft
- Code IATA : NCE
- Voir les cartes d'approche


LFMN - Nice

DERNIER METAR :
  • 172230Z 34008KT CAVOK 24/14 Q1013 NOSIG

METARs EXPIRÉS :
  • 172200Z 33007KT CAVOK 24/14 Q1013 NOSIG
  • 172130Z 33006KT CAVOK 24/15 Q1013 NOSIG
  • 172100Z 32006KT CAVOK 25/17 Q1013 NOSIG
  • 172030Z 30004KT CAVOK 25/20 Q1013 NOSIG
  • 172000Z 23003KT CAVOK 25/21 Q1013 NOSIG

TAF TAF LFMN
Valide du 17 à 21h jusqu'au 19 à 03h UTC


172000Z 1721/1903 VRB05KT CAVOK
TEMPO 1722/1805 36010KT
BECMG 1807/1809 14010KT
BECMG 1817/1819 VRB05KT
TEMPO 1900/1903 08010KT BKN010
ATIS : +33 4 93 17 21 16
Pas de NOTAMs connus pour ce terrain.



MET'MAP, la Météo Aéronautique d'un coup d'oeil ! - Copyright ORBIFLY Décembre 2007 - Disclaimer

ORBIFLY MET'MAP TEAM :

Programmation & Développement : Alexandra Zaïnal
Conception & Développement : Baudouin d'Aumeries
Co-Programmation & Développement : Marc-Olivier Méhu
Soutien technique & logistique : Manuel Goepfert

Contact : metmap@orbifly.com




SOURCES & CREDITS :

   NOAA